Time,TemperatureF,DewpointF,PressureIn,WindDirection,WindDirectionDegrees,WindSpeedMPH,WindSpeedGustMPH,Humidity,HourlyPrecipIn,Conditions,Clouds,dailyrainin,SoftwareType,DateUTC
2013-12-16 00:10:00,8.2,3.6,29.89,SW,225,3.2,-999.0,81,-99.99,,,0.00,Acu-Link.com,2013-12-16 05:10:00,
2013-12-16 00:25:00,8.1,3.5,29.89,SW,225,5.3,-999.0,81,-99.99,,,0.00,Acu-Link.com,2013-12-16 05:25:00,
2013-12-16 00:41:00,8.1,3.5,29.89,West,270,4.7,-999.0,81,-99.99,,,0.00,Acu-Link.com,2013-12-16 05:41:00,
2013-12-16 00:56:00,8.1,3.5,29.89,South,180,2.7,-999.0,81,-99.99,,,0.00,Acu-Link.com,2013-12-16 05:56:00,
2013-12-16 01:11:00,8.1,3.5,29.90,WSW,247,3.2,-999.0,81,-99.99,,,0.00,Acu-Link.com,2013-12-16 06:11:00,
2013-12-16 01:26:00,8.1,3.8,29.90,West,270,2.2,-999.0,82,-99.99,,,0.00,Acu-Link.com,2013-12-16 06:26:00,
2013-12-16 01:41:00,8.8,4.4,29.91,SW,225,1.7,-999.0,82,-99.99,,,0.00,Acu-Link.com,2013-12-16 06:41:00,
2013-12-16 01:56:00,10.2,5.3,29.91,SW,225,2.7,-999.0,80,-99.99,,,0.00,Acu-Link.com,2013-12-16 06:56:00,
2013-12-16 02:11:00,10.9,5.7,29.92,WSW,247,4.2,-999.0,79,-99.99,,,0.00,Acu-Link.com,2013-12-16 07:11:00,
2013-12-16 02:26:00,11.5,6.0,29.92,West,270,3.7,-999.0,78,-99.99,,,0.00,Acu-Link.com,2013-12-16 07:26:00,
2013-12-16 02:41:00,11.8,6.3,29.93,West,270,5.8,-999.0,78,-99.99,,,0.00,Acu-Link.com,2013-12-16 07:41:00,
2013-12-16 02:57:00,12.2,6.4,29.93,WSW,247,4.7,-999.0,77,-99.99,,,0.00,Acu-Link.com,2013-12-16 07:57:00,
2013-12-16 03:12:00,12.4,6.3,29.94,West,270,7.3,-999.0,76,-99.99,,,0.00,Acu-Link.com,2013-12-16 08:12:00,
2013-12-16 03:27:00,12.2,6.4,29.95,WSW,247,3.7,-999.0,77,-99.99,,,0.00,Acu-Link.com,2013-12-16 08:27:00,
2013-12-16 03:42:00,12.0,6.5,29.95,West,270,5.3,-999.0,78,-99.99,,,0.00,Acu-Link.com,2013-12-16 08:42:00,
2013-12-16 03:57:00,11.8,6.6,29.96,West,270,4.7,-999.0,79,-99.99,,,0.00,Acu-Link.com,2013-12-16 08:57:00,
2013-12-16 04:12:00,11.3,6.1,29.96,NW,315,3.2,-999.0,79,-99.99,,,0.00,Acu-Link.com,2013-12-16 09:12:00,
2013-12-16 04:27:00,11.1,6.2,29.97,SW,225,3.7,-999.0,80,-99.99,,,0.00,Acu-Link.com,2013-12-16 09:27:00,
2013-12-16 04:42:00,10.9,6.5,29.97,West,270,4.7,-999.0,82,-99.99,,,0.00,Acu-Link.com,2013-12-16 09:42:00,
2013-12-16 04:57:00,10.6,7.0,29.97,West,270,2.7,-999.0,85,-99.99,,,0.00,Acu-Link.com,2013-12-16 09:57:00,
2013-12-16 05:13:00,10.0,6.7,29.98,SW,225,2.7,-999.0,86,-99.99,,,0.00,Acu-Link.com,2013-12-16 10:13:00,
2013-12-16 05:28:00,9.7,6.4,29.98,West,270,2.7,-999.0,86,-99.99,,,0.00,Acu-Link.com,2013-12-16 10:28:00,
2013-12-16 05:43:00,8.4,5.3,29.98,SW,225,2.2,-999.0,87,-99.99,,,0.00,Acu-Link.com,2013-12-16 10:43:00,
2013-12-16 05:58:00,7.3,4.5,29.99,SW,225,1.7,-999.0,88,-99.99,,,0.00,Acu-Link.com,2013-12-16 10:58:00,
2013-12-16 06:13:00,6.1,3.6,29.99,SW,225,0.0,-999.0,89,-99.99,,,0.00,Acu-Link.com,2013-12-16 11:13:00,
2013-12-16 06:28:00,4.8,2.5,29.99,West,270,0.0,-999.0,90,-99.99,,,0.00,Acu-Link.com,2013-12-16 11:28:00,
2013-12-16 06:43:00,3.4,1.1,30.00,West,270,0.0,-999.0,90,-99.99,,,0.00,Acu-Link.com,2013-12-16 11:43:00,
2013-12-16 06:58:00,2.1,0.1,30.01,WSW,247,0.0,-999.0,91,-99.99,,,0.00,Acu-Link.com,2013-12-16 11:58:00,
2013-12-16 07:13:00,0.3,-1.9,30.01,SW,225,0.0,-999.0,90,-99.99,,,0.00,Acu-Link.com,2013-12-16 12:13:00,
2013-12-16 07:29:00,-1.1,-3.5,30.01,SSW,202,0.0,-999.0,89,-99.99,,,0.00,Acu-Link.com,2013-12-16 12:29:00,
2013-12-16 07:44:00,-2.0,-4.4,30.01,SSW,202,0.0,-999.0,89,-99.99,,,0.00,Acu-Link.com,2013-12-16 12:44:00,
2013-12-16 07:59:00,-3.1,-5.5,30.02,SSW,202,0.0,-999.0,89,-99.99,,,0.00,Acu-Link.com,2013-12-16 12:59:00,
2013-12-16 08:14:00,-3.8,-6.2,30.03,SSW,202,0.0,-999.0,89,-99.99,,,0.00,Acu-Link.com,2013-12-16 13:14:00,
2013-12-16 08:29:00,-4.0,-6.4,30.03,SSW,202,0.0,-999.0,89,-99.99,,,0.00,Acu-Link.com,2013-12-16 13:29:00,
2013-12-16 08:44:00,-3.1,-5.3,30.04,SSW,202,0.0,-999.0,90,-99.99,,,0.00,Acu-Link.com,2013-12-16 13:44:00,
2013-12-16 08:59:00,-1.3,-3.5,30.05,SSW,202,0.0,-999.0,90,-99.99,,,0.00,Acu-Link.com,2013-12-16 13:59:00,
2013-12-16 09:14:00,1.2,-0.6,30.05,West,270,0.0,-999.0,92,-99.99,,,0.00,Acu-Link.com,2013-12-16 14:14:00,
2013-12-16 09:29:00,3.6,2.0,30.05,North,0,0.0,-999.0,93,-99.99,,,0.00,Acu-Link.com,2013-12-16 14:29:00,
2013-12-16 09:45:00,7.2,5.1,30.06,NNW,337,2.7,-999.0,91,-99.99,,,0.00,Acu-Link.com,2013-12-16 14:45:00,
2013-12-16 10:00:00,8.2,5.9,30.06,NW,315,2.7,-999.0,90,-99.99,,,0.00,Acu-Link.com,2013-12-16 15:00:00,
2013-12-16 10:15:00,9.0,6.4,30.06,NW,315,3.2,-999.0,89,-99.99,,,0.00,Acu-Link.com,2013-12-16 15:15:00,
2013-12-16 10:30:00,10.2,6.9,30.06,North,0,2.2,-999.0,86,-99.99,,,0.00,Acu-Link.com,2013-12-16 15:30:00,
2013-12-16 10:45:00,12.0,7.3,30.07,North,0,2.7,-999.0,81,-99.99,,,0.00,Acu-Link.com,2013-12-16 15:45:00,
2013-12-16 11:00:00,12.7,7.2,30.07,WNW,292,3.7,-999.0,78,-99.99,,,0.00,Acu-Link.com,2013-12-16 16:00:00,
2013-12-16 11:15:00,13.3,7.2,30.06,NNW,337,3.7,-999.0,76,-99.99,,,0.00,Acu-Link.com,2013-12-16 16:15:00,
2013-12-16 11:30:00,13.8,7.4,30.06,WNW,292,2.7,-999.0,75,-99.99,,,0.00,Acu-Link.com,2013-12-16 16:30:00,
2013-12-16 11:45:00,14.5,7.8,30.05,SE,135,3.2,-999.0,74,-99.99,,,0.00,Acu-Link.com,2013-12-16 16:45:00,
2013-12-16 12:01:00,15.8,7.1,30.03,East,90,3.2,-999.0,68,-99.99,,,0.00,Acu-Link.com,2013-12-16 17:01:00,
2013-12-16 12:16:00,16.0,7.3,30.02,East,90,4.2,-999.0,68,-99.99,,,0.00,Acu-Link.com,2013-12-16 17:16:00,
2013-12-16 12:31:00,16.2,7.5,30.02,ENE,67,2.7,-999.0,68,-99.99,,,0.00,Acu-Link.com,2013-12-16 17:31:00,
2013-12-16 12:46:00,17.1,7.7,30.01,SE,135,2.2,-999.0,66,-99.99,,,0.00,Acu-Link.com,2013-12-16 17:46:00,
2013-12-16 13:01:00,16.9,7.5,30.00,ESE,112,2.7,-999.0,66,-99.99,,,0.00,Acu-Link.com,2013-12-16 18:01:00,
2013-12-16 13:16:00,17.4,7.7,29.99,ESE,112,3.2,-999.0,65,-99.99,,,0.00,Acu-Link.com,2013-12-16 18:16:00,
2013-12-16 13:32:00,17.4,6.6,30.00,North,0,1.7,-999.0,62,-99.99,,,0.00,Acu-Link.com,2013-12-16 18:32:00,
2013-12-16 13:47:00,19.0,6.7,30.00,North,0,0.0,-999.0,58,-99.99,,,0.00,Acu-Link.com,2013-12-16 18:47:00,
2013-12-16 14:02:00,19.9,5.6,29.99,North,0,0.0,-999.0,53,-99.99,,,0.00,Acu-Link.com,2013-12-16 19:02:00,
2013-12-16 14:17:00,19.2,4.1,30.00,North,0,2.2,-999.0,51,-99.99,,,0.00,Acu-Link.com,2013-12-16 19:17:00,
2013-12-16 14:32:00,20.3,4.7,29.99,SSE,157,1.7,-999.0,50,-99.99,,,0.00,Acu-Link.com,2013-12-16 19:32:00,
2013-12-16 14:47:00,20.8,5.1,29.99,East,90,2.2,-999.0,50,-99.99,,,0.00,Acu-Link.com,2013-12-16 19:47:00,
2013-12-16 15:02:00,20.3,4.2,29.99,East,90,1.7,-999.0,49,-99.99,,,0.00,Acu-Link.com,2013-12-16 20:02:00,
2013-12-16 15:17:00,20.7,3.7,29.98,East,90,0.0,-999.0,47,-99.99,,,0.00,Acu-Link.com,2013-12-16 20:17:00,
2013-12-16 15:32:00,20.5,4.4,29.98,ESE,112,2.2,-999.0,49,-99.99,,,0.00,Acu-Link.com,2013-12-16 20:32:00,
2013-12-16 15:47:00,19.9,3.4,29.98,ESE,112,0.0,-999.0,48,-99.99,,,0.00,Acu-Link.com,2013-12-16 20:47:00,
2013-12-16 16:03:00,19.4,3.4,29.98,ESE,112,1.1,-999.0,49,-99.99,,,0.00,Acu-Link.com,2013-12-16 21:03:00,
2013-12-16 16:18:00,18.3,3.7,29.99,East,90,1.7,-999.0,52,-99.99,,,0.00,Acu-Link.com,2013-12-16 21:18:00,
2013-12-16 16:33:00,20.8,4.2,29.99,ESE,112,0.0,-999.0,48,-99.99,,,0.00,Acu-Link.com,2013-12-16 21:33:00,
2013-12-16 16:48:00,17.1,3.7,30.00,NE,45,0.0,-999.0,55,-99.99,,,0.00,Acu-Link.com,2013-12-16 21:48:00,
2013-12-16 17:03:00,14.7,3.7,30.00,ESE,112,0.0,-999.0,61,-99.99,,,0.00,Acu-Link.com,2013-12-16 22:03:00,
2013-12-16 17:18:00,11.8,2.3,29.99,ESE,112,0.0,-999.0,65,-99.99,,,0.00,Acu-Link.com,2013-12-16 22:18:00,
2013-12-16 17:33:00,9.1,1.3,29.99,ESE,112,0.0,-999.0,70,-99.99,,,0.00,Acu-Link.com,2013-12-16 22:33:00,
2013-12-16 17:48:00,7.2,0.4,29.99,SSE,157,0.0,-999.0,73,-99.99,,,0.00,Acu-Link.com,2013-12-16 22:48:00,
2013-12-16 18:03:00,6.4,0.8,29.99,ENE,67,0.0,-999.0,77,-99.99,,,0.00,Acu-Link.com,2013-12-16 23:03:00,
2013-12-16 18:19:00,6.3,0.9,29.98,ESE,112,0.0,-999.0,78,-99.99,,,0.00,Acu-Link.com,2013-12-16 23:19:00,
2013-12-16 18:34:00,7.9,1.9,29.98,ESE,112,0.0,-999.0,76,-99.99,,,0.00,Acu-Link.com,2013-12-16 23:34:00,
2013-12-16 18:50:00,7.3,1.4,29.99,ESE,112,0.0,-999.0,76,-99.99,,,0.00,Acu-Link.com,2013-12-16 23:50:00,
2013-12-16 19:05:00,7.2,2.1,29.99,ESE,112,1.7,-999.0,79,-99.99,,,0.00,Acu-Link.com,2013-12-17 00:05:00,
2013-12-16 19:21:00,7.3,2.2,29.99,East,90,0.0,-999.0,79,-99.99,,,0.00,Acu-Link.com,2013-12-17 00:21:00,
2013-12-16 19:36:00,7.7,2.6,29.98,South,180,1.1,-999.0,79,-99.99,,,0.00,Acu-Link.com,2013-12-17 00:36:00,
2013-12-16 19:51:00,7.3,2.2,29.98,South,180,0.0,-999.0,79,-99.99,,,0.00,Acu-Link.com,2013-12-17 00:51:00,
2013-12-16 20:06:00,7.3,2.5,29.98,SE,135,0.0,-999.0,80,-99.99,,,0.00,Acu-Link.com,2013-12-17 01:06:00,
2013-12-16 20:21:00,6.3,1.7,29.98,ESE,112,0.0,-999.0,81,-99.99,,,0.00,Acu-Link.com,2013-12-17 01:21:00,
2013-12-16 20:36:00,5.9,1.9,29.98,NNE,22,0.0,-999.0,83,-99.99,,,0.00,Acu-Link.com,2013-12-17 01:36:00,
2013-12-16 20:51:00,5.0,1.0,29.98,NNE,22,0.0,-999.0,83,-99.99,,,0.00,Acu-Link.com,2013-12-17 01:51:00,
2013-12-16 21:06:00,5.7,2.2,29.97,NNE,22,0.0,-999.0,85,-99.99,,,0.00,Acu-Link.com,2013-12-17 02:06:00,
2013-12-16 21:21:00,6.1,2.6,29.97,SSE,157,0.0,-999.0,85,-99.99,,,0.00,Acu-Link.com,2013-12-17 02:21:00,
2013-12-16 21:37:00,7.5,4.2,29.97,SE,135,0.0,-999.0,86,-99.99,,,0.00,Acu-Link.com,2013-12-17 02:37:00,
2013-12-16 21:52:00,8.8,5.5,29.97,East,90,1.7,-999.0,86,-99.99,,,0.00,Acu-Link.com,2013-12-17 02:52:00,
2013-12-16 22:07:00,10.2,6.6,29.97,NNE,22,1.1,-999.0,85,-99.99,,,0.00,Acu-Link.com,2013-12-17 03:07:00,
2013-12-16 22:22:00,10.9,6.8,29.96,ESE,112,0.0,-999.0,83,-99.99,,,0.00,Acu-Link.com,2013-12-17 03:22:00,
2013-12-16 22:37:00,11.7,7.3,29.94,SE,135,0.0,-999.0,82,-99.99,,,0.00,Acu-Link.com,2013-12-17 03:37:00,
2013-12-16 22:52:00,11.8,7.4,29.94,ENE,67,0.0,-999.0,82,-99.99,,,0.00,Acu-Link.com,2013-12-17 03:52:00,
2013-12-16 23:07:00,12.6,8.4,29.94,ESE,112,0.0,-999.0,83,-99.99,,,0.00,Acu-Link.com,2013-12-17 04:07:00,
2013-12-16 23:22:00,12.9,8.7,29.93,South,180,0.0,-999.0,83,-99.99,,,0.00,Acu-Link.com,2013-12-17 04:22:00,
2013-12-16 23:37:00,12.9,9.3,29.92,SE,135,1.7,-999.0,85,-99.99,,,0.00,Acu-Link.com,2013-12-17 04:37:00,
2013-12-16 23:53:00,12.9,9.8,29.92,SE,135,2.2,-999.0,87,-99.99,,,0.00,Acu-Link.com,2013-12-17 04:53:00,